Time,TemperatureF,DewpointF,PressureIn,WindDirection,WindDirectionDegrees,WindSpeedMPH,WindSpeedGustMPH,Humidity,HourlyPrecipIn,Conditions,Clouds,dailyrainin,SoftwareType,DateUTC
2013-05-14 00:01:00,44.4,31.0,30.56,WNW,292,0.0,0.0,59,0.00,,,0.00,WUHU21623XXSP,2013-05-14 04:01:00,
2013-05-14 00:03:00,44.4,31.0,30.56,WNW,292,0.0,0.0,59,0.00,,,0.00,WUHU21623XXSP,2013-05-14 04:03:00,
2013-05-14 00:08:00,44.4,31.0,30.56,WNW,292,0.0,0.0,59,0.00,,,0.00,WUHU21623XXSP,2013-05-14 04:08:00,
2013-05-14 00:13:00,44.2,30.8,30.56,WNW,292,0.0,0.0,59,0.00,,,0.00,WUHU21623XXSP,2013-05-14 04:13:00,
2013-05-14 00:18:00,44.2,30.8,30.56,WNW,292,0.0,0.0,59,0.00,,,0.00,WUHU21623XXSP,2013-05-14 04:18:00,
2013-05-14 00:23:00,44.2,30.8,30.56,WNW,292,0.0,0.0,59,0.00,,,0.00,WUHU21623XXSP,2013-05-14 04:23:00,
2013-05-14 00:28:00,44.2,30.8,30.56,WNW,292,0.0,0.0,59,0.00,,,0.00,WUHU21623XXSP,2013-05-14 04:28:00,
2013-05-14 00:33:00,44.2,30.8,30.56,WNW,292,0.0,0.0,59,0.00,,,0.00,WUHU21623XXSP,2013-05-14 04:33:00,
2013-05-14 00:38:00,44.1,30.6,30.56,WNW,292,0.0,0.0,59,0.00,,,0.00,WUHU21623XXSP,2013-05-14 04:38:00,
2013-05-14 00:43:00,43.9,30.9,30.56,WNW,292,0.0,0.0,60,0.00,,,0.00,WUHU21623XXSP,2013-05-14 04:43:00,
2013-05-14 00:48:00,43.9,31.3,30.55,WNW,292,0.0,0.0,61,0.00,,,0.00,WUHU21623XXSP,2013-05-14 04:48:00,
2013-05-14 00:53:00,43.7,31.1,30.56,WNW,292,0.0,0.0,61,0.00,,,0.00,WUHU21623XXSP,2013-05-14 04:53:00,
2013-05-14 00:58:00,43.5,31.3,30.56,WNW,292,0.0,0.0,62,0.00,,,0.00,WUHU21623XXSP,2013-05-14 04:58:00,
2013-05-14 01:03:00,43.3,31.2,30.55,WNW,292,0.0,0.0,62,0.00,,,0.00,WUHU21623XXSP,2013-05-14 05:03:00,
2013-05-14 01:08:00,43.3,31.6,30.55,WNW,292,0.0,0.0,63,0.00,,,0.00,WUHU21623XXSP,2013-05-14 05:08:00,
2013-05-14 01:13:00,43.3,31.6,30.55,WNW,292,0.0,0.0,63,0.00,,,0.00,WUHU21623XXSP,2013-05-14 05:13:00,
2013-05-14 01:18:00,43.3,31.6,30.55,WNW,292,0.0,0.0,63,0.00,,,0.00,WUHU21623XXSP,2013-05-14 05:18:00,
2013-05-14 01:24:00,43.3,31.6,30.55,WNW,292,0.0,0.0,63,0.00,,,0.00,WUHU21623XXSP,2013-05-14 05:24:00,
2013-05-14 01:29:00,43.3,31.6,30.55,WNW,292,0.0,0.0,63,0.00,,,0.00,WUHU21623XXSP,2013-05-14 05:29:00,
2013-05-14 01:34:00,43.5,31.7,30.55,WNW,292,0.0,0.0,63,0.00,,,0.00,WUHU21623XXSP,2013-05-14 05:34:00,
2013-05-14 01:39:00,43.5,31.7,30.55,WNW,292,0.0,0.0,63,0.00,,,0.00,WUHU21623XXSP,2013-05-14 05:39:00,
2013-05-14 01:44:00,43.5,31.7,30.55,WNW,292,0.0,0.0,63,0.00,,,0.00,WUHU21623XXSP,2013-05-14 05:44:00,
2013-05-14 01:49:00,43.5,31.7,30.55,WNW,292,0.0,0.0,63,0.00,,,0.00,WUHU21623XXSP,2013-05-14 05:49:00,
2013-05-14 01:54:00,43.5,32.5,30.54,WNW,292,0.0,0.0,65,0.00,,,0.00,WUHU21623XXSP,2013-05-14 05:54:00,
2013-05-14 01:59:00,43.5,32.5,30.54,WNW,292,0.0,0.0,65,0.00,,,0.00,WUHU21623XXSP,2013-05-14 05:59:00,
2013-05-14 02:04:00,43.5,32.5,30.54,NW,315,0.0,0.0,65,0.00,,,0.00,WUHU21623XXSP,2013-05-14 06:04:00,
2013-05-14 02:09:00,43.5,32.1,30.54,NNW,337,0.0,0.0,64,0.00,,,0.00,WUHU21623XXSP,2013-05-14 06:09:00,
2013-05-14 02:14:00,43.7,32.3,30.54,NNW,337,0.0,0.0,64,0.00,,,0.00,WUHU21623XXSP,2013-05-14 06:14:00,
2013-05-14 02:19:00,43.7,32.3,30.55,NNW,337,0.0,0.0,64,0.00,,,0.00,WUHU21623XXSP,2013-05-14 06:19:00,
2013-05-14 02:24:00,43.9,32.5,30.55,NNW,337,0.0,0.0,64,0.00,,,0.00,WUHU21623XXSP,2013-05-14 06:24:00,
2013-05-14 02:29:00,43.9,32.5,30.54,NNW,337,0.0,0.0,64,0.00,,,0.00,WUHU21623XXSP,2013-05-14 06:29:00,
2013-05-14 02:34:00,43.7,32.3,30.55,NNW,337,0.0,0.0,64,0.00,,,0.00,WUHU21623XXSP,2013-05-14 06:34:00,
2013-05-14 02:39:00,43.7,32.3,30.54,NNW,337,0.0,0.0,64,0.00,,,0.00,WUHU21623XXSP,2013-05-14 06:39:00,
2013-05-14 02:44:00,43.9,32.5,30.55,SSE,157,0.0,0.0,64,0.00,,,0.00,WUHU21623XXSP,2013-05-14 06:44:00,
2013-05-14 02:49:00,43.9,32.5,30.55,NNW,337,0.0,0.0,64,0.00,,,0.00,WUHU21623XXSP,2013-05-14 06:49:00,
2013-05-14 02:54:00,43.9,32.5,30.55,NNW,337,0.0,0.0,64,0.00,,,0.00,WUHU21623XXSP,2013-05-14 06:54:00,
2013-05-14 02:59:00,43.9,32.5,30.55,NW,315,0.0,0.0,64,0.00,,,0.00,WUHU21623XXSP,2013-05-14 06:59:00,
2013-05-14 03:04:00,43.9,32.5,30.55,NW,315,0.0,0.0,64,0.00,,,0.00,WUHU21623XXSP,2013-05-14 07:04:00,
2013-05-14 03:09:00,43.9,32.8,30.55,NNW,337,0.0,0.0,65,0.00,,,0.00,WUHU21623XXSP,2013-05-14 07:09:00,
2013-05-14 03:14:00,43.9,32.8,30.55,NNW,337,0.0,0.0,65,0.00,,,0.00,WUHU21623XXSP,2013-05-14 07:14:00,
2013-05-14 03:19:00,43.9,32.8,30.55,NNW,337,0.0,0.0,66,0.00,,,0.00,WUHU21623XXSP,2013-05-14 07:19:00,
2013-05-14 03:24:00,43.9,33.2,30.55,NNW,337,0.0,0.0,66,0.00,,,0.00,WUHU21623XXSP,2013-05-14 07:24:00,
2013-05-14 03:29:00,43.7,33.1,30.55,NNW,337,0.0,0.0,66,0.00,,,0.00,WUHU21623XXSP,2013-05-14 07:29:00,
2013-05-14 03:34:00,43.5,32.9,30.54,NNW,337,0.0,0.0,66,0.00,,,0.00,WUHU21623XXSP,2013-05-14 07:34:00,
2013-05-14 03:39:00,43.5,32.9,30.54,NNW,337,0.0,0.0,66,0.00,,,0.00,WUHU21623XXSP,2013-05-14 07:39:00,
2013-05-14 03:44:00,43.5,32.9,30.54,NW,315,0.0,0.0,66,0.00,,,0.00,WUHU21623XXSP,2013-05-14 07:44:00,
2013-05-14 03:49:00,43.5,32.9,30.54,ENE,67,0.0,0.0,66,0.00,,,0.00,WUHU21623XXSP,2013-05-14 07:49:00,
2013-05-14 03:55:00,43.5,32.9,30.53,ENE,67,0.0,0.0,66,0.00,,,0.00,WUHU21623XXSP,2013-05-14 07:55:00,
2013-05-14 04:00:00,43.5,32.9,30.53,ENE,67,0.0,0.0,66,0.00,,,0.00,WUHU21623XXSP,2013-05-14 08:00:00,
2013-05-14 04:05:00,43.5,33.3,30.53,ENE,67,0.0,0.0,67,0.00,,,0.00,WUHU21623XXSP,2013-05-14 08:05:00,
2013-05-14 04:10:00,43.5,33.3,30.53,ENE,67,0.0,0.0,68,0.00,,,0.00,WUHU21623XXSP,2013-05-14 08:10:00,
2013-05-14 04:15:00,43.5,33.7,30.53,ENE,67,0.0,0.0,68,0.00,,,0.00,WUHU21623XXSP,2013-05-14 08:15:00,
2013-05-14 04:20:00,43.3,33.9,30.51,ENE,67,0.0,0.0,69,0.00,,,0.00,WUHU21623XXSP,2013-05-14 08:20:00,
2013-05-14 04:25:00,43.3,33.9,30.51,ENE,67,0.0,0.0,69,0.00,,,0.00,WUHU21623XXSP,2013-05-14 08:25:00,
2013-05-14 04:30:00,43.3,33.9,30.52,ENE,67,0.0,0.0,69,0.00,,,0.00,WUHU21623XXSP,2013-05-14 08:30:00,
2013-05-14 04:35:00,43.5,33.7,30.52,ENE,67,0.0,0.0,68,0.00,,,0.00,WUHU21623XXSP,2013-05-14 08:35:00,
2013-05-14 04:40:00,43.5,33.7,30.52,ENE,67,0.0,0.0,68,0.00,,,0.00,WUHU21623XXSP,2013-05-14 08:40:00,
2013-05-14 04:45:00,43.5,33.7,30.52,ENE,67,0.0,0.0,68,0.00,,,0.00,WUHU21623XXSP,2013-05-14 08:45:00,
2013-05-14 04:50:00,43.7,33.8,30.51,ENE,67,0.0,0.0,68,0.00,,,0.00,WUHU21623XXSP,2013-05-14 08:50:00,
2013-05-14 04:55:00,43.7,33.8,30.51,ENE,67,0.0,0.0,68,0.00,,,0.00,WUHU21623XXSP,2013-05-14 08:55:00,
2013-05-14 05:00:00,43.7,33.8,30.51,ENE,67,0.0,0.0,68,0.00,,,0.00,WUHU21623XXSP,2013-05-14 09:00:00,
2013-05-14 05:05:00,43.7,33.8,30.50,ENE,67,0.0,0.0,68,0.00,,,0.00,WUHU21623XXSP,2013-05-14 09:05:00,
2013-05-14 05:10:00,43.7,33.8,30.49,NW,315,0.0,0.0,68,0.00,,,0.00,WUHU21623XXSP,2013-05-14 09:10:00,
2013-05-14 05:15:00,43.9,33.6,30.48,ENE,67,0.0,0.0,67,0.00,,,0.00,WUHU21623XXSP,2013-05-14 09:15:00,
2013-05-14 05:20:00,43.9,33.6,30.48,NNE,22,0.0,0.0,67,0.00,,,0.00,WUHU21623XXSP,2013-05-14 09:20:00,
2013-05-14 05:25:00,44.1,33.4,30.48,NNE,22,0.0,0.0,66,0.00,,,0.00,WUHU21623XXSP,2013-05-14 09:25:00,
2013-05-14 05:30:00,44.1,33.0,30.47,North,0,0.0,0.0,65,0.00,,,0.00,WUHU21623XXSP,2013-05-14 09:30:00,
2013-05-14 05:35:00,44.2,33.2,30.47,West,270,0.0,0.0,65,0.00,,,0.00,WUHU21623XXSP,2013-05-14 09:35:00,
2013-05-14 05:41:00,44.2,32.8,30.46,ENE,67,0.0,0.0,64,0.00,,,0.00,WUHU21623XXSP,2013-05-14 09:41:00,
2013-05-14 05:46:00,44.2,32.4,30.46,NNE,22,0.0,0.0,63,0.00,,,0.00,WUHU21623XXSP,2013-05-14 09:46:00,
2013-05-14 05:51:00,44.2,32.4,30.46,NE,45,0.0,0.0,63,0.00,,,0.00,WUHU21623XXSP,2013-05-14 09:51:00,
2013-05-14 05:56:00,44.4,32.2,30.45,NNE,22,0.0,0.0,62,0.00,,,0.00,WUHU21623XXSP,2013-05-14 09:56:00,
2013-05-14 06:01:00,44.4,32.2,30.46,NNE,22,0.0,0.0,62,0.00,,,0.00,WUHU21623XXSP,2013-05-14 10:01:00,
2013-05-14 06:06:00,44.4,32.2,30.46,North,0,0.0,0.0,62,0.00,,,0.00,WUHU21623XXSP,2013-05-14 10:06:00,
2013-05-14 06:11:00,44.4,32.2,30.46,NNE,22,0.0,0.0,62,0.00,,,0.00,WUHU21623XXSP,2013-05-14 10:11:00,
2013-05-14 06:16:00,44.4,32.2,30.46,NNW,337,0.0,0.0,62,0.00,,,0.00,WUHU21623XXSP,2013-05-14 10:16:00,
2013-05-14 06:21:00,44.8,32.6,30.46,North,0,0.0,0.0,62,0.00,,,0.00,WUHU21623XXSP,2013-05-14 10:21:00,
2013-05-14 06:26:00,44.8,32.2,30.46,NNE,22,0.0,0.0,61,0.00,,,0.00,WUHU21623XXSP,2013-05-14 10:26:00,
2013-05-14 06:31:00,44.8,32.2,30.46,NNE,22,0.0,0.0,61,0.00,,,0.00,WUHU21623XXSP,2013-05-14 10:31:00,
2013-05-14 06:36:00,44.8,32.6,30.46,NNE,22,0.0,0.0,62,0.00,,,0.00,WUHU21623XXSP,2013-05-14 10:36:00,
2013-05-14 06:41:00,45.0,32.3,30.46,NE,45,0.0,0.0,61,0.00,,,0.00,WUHU21623XXSP,2013-05-14 10:41:00,
2013-05-14 06:46:00,45.1,32.5,30.45,NW,315,0.0,0.0,61,0.00,,,0.00,WUHU21623XXSP,2013-05-14 10:46:00,
2013-05-14 06:51:00,45.1,32.5,30.46,WSW,247,0.0,0.0,61,0.00,,,0.00,WUHU21623XXSP,2013-05-14 10:51:00,
2013-05-14 06:56:00,45.3,32.5,30.46,North,0,0.0,0.0,61,0.00,,,0.00,WUHU21623XXSP,2013-05-14 10:56:00,
2013-05-14 07:01:00,45.1,32.5,30.46,North,0,0.0,0.0,61,0.00,,,0.00,WUHU21623XXSP,2013-05-14 11:01:00,
2013-05-14 07:06:00,45.5,32.8,30.46,NNW,337,0.0,0.0,61,0.00,,,0.00,WUHU21623XXSP,2013-05-14 11:06:00,
2013-05-14 07:11:00,45.7,32.6,30.46,North,0,0.0,0.0,60,0.00,,,0.00,WUHU21623XXSP,2013-05-14 11:11:00,
2013-05-14 07:16:00,45.7,32.6,30.46,SW,225,0.0,0.0,60,0.00,,,0.00,WUHU21623XXSP,2013-05-14 11:16:00,
2013-05-14 07:21:00,45.9,32.8,30.46,ESE,112,0.0,0.0,60,0.00,,,0.00,WUHU21623XXSP,2013-05-14 11:21:00,
2013-05-14 07:26:00,46.0,32.9,30.46,South,180,0.0,0.0,60,0.00,,,0.00,WUHU21623XXSP,2013-05-14 11:26:00,
2013-05-14 07:31:00,46.0,32.9,30.46,ENE,67,0.0,0.0,60,0.00,,,0.00,WUHU21623XXSP,2013-05-14 11:31:00,
2013-05-14 07:36:00,46.0,33.3,30.46,NE,45,0.0,0.0,61,0.00,,,0.00,WUHU21623XXSP,2013-05-14 11:36:00,
2013-05-14 07:41:00,46.0,33.3,30.46,South,180,0.0,0.0,61,0.00,,,0.00,WUHU21623XXSP,2013-05-14 11:41:00,
2013-05-14 07:46:00,46.0,32.9,30.46,North,0,0.0,0.0,60,0.00,,,0.00,WUHU21623XXSP,2013-05-14 11:46:00,
2013-05-14 07:51:00,46.2,33.1,30.47,SW,225,0.0,0.0,60,0.00,,,0.00,WUHU21623XXSP,2013-05-14 11:51:00,
2013-05-14 07:56:00,46.2,33.5,30.47,East,90,0.0,0.0,61,0.00,,,0.00,WUHU21623XXSP,2013-05-14 11:56:00,
2013-05-14 08:01:00,46.2,33.5,30.46,East,90,0.0,0.0,61,0.00,,,0.00,WUHU21623XXSP,2013-05-14 12:01:00,
2013-05-14 08:07:00,46.6,34.2,30.46,East,90,0.0,0.0,62,0.00,,,0.00,WUHU21623XXSP,2013-05-14 12:07:00,
2013-05-14 08:12:00,46.6,34.2,30.46,ESE,112,0.0,0.0,62,0.00,,,0.00,WUHU21623XXSP,2013-05-14 12:12:00,
2013-05-14 08:17:00,46.8,34.4,30.46,SSE,157,0.0,0.0,62,0.00,,,0.00,WUHU21623XXSP,2013-05-14 12:17:00,
2013-05-14 08:22:00,46.8,34.4,30.45,SSE,157,0.0,0.0,62,0.00,,,0.00,WUHU21623XXSP,2013-05-14 12:22:00,
2013-05-14 08:27:00,46.9,34.6,30.46,West,270,0.0,0.0,62,0.00,,,0.00,WUHU21623XXSP,2013-05-14 12:27:00,
2013-05-14 08:32:00,47.1,34.8,30.45,WSW,247,0.0,0.0,62,0.00,,,0.00,WUHU21623XXSP,2013-05-14 12:32:00,
2013-05-14 08:37:00,47.3,34.5,30.45,North,0,0.0,0.0,61,0.00,,,0.00,WUHU21623XXSP,2013-05-14 12:37:00,
2013-05-14 08:42:00,47.5,34.7,30.44,North,0,0.0,0.0,61,0.00,,,0.00,WUHU21623XXSP,2013-05-14 12:42:00,
2013-05-14 08:47:00,47.7,34.5,30.44,SW,225,0.0,0.0,60,0.00,,,0.00,WUHU21623XXSP,2013-05-14 12:47:00,
2013-05-14 08:52:00,48.0,34.9,30.44,WNW,292,0.0,0.0,60,0.00,,,0.00,WUHU21623XXSP,2013-05-14 12:52:00,
2013-05-14 08:57:00,48.0,34.4,30.44,NNE,22,0.0,0.0,59,0.00,,,0.00,WUHU21623XXSP,2013-05-14 12:57:00,
2013-05-14 09:02:00,48.2,34.6,30.43,East,90,0.0,0.0,59,0.00,,,0.00,WUHU21623XXSP,2013-05-14 13:02:00,
2013-05-14 09:07:00,48.4,34.8,30.43,ENE,67,0.0,0.0,59,0.00,,,0.00,WUHU21623XXSP,2013-05-14 13:07:00,
2013-05-14 09:12:00,48.6,34.9,30.43,ENE,67,0.0,0.0,59,0.00,,,0.00,WUHU21623XXSP,2013-05-14 13:12:00,
2013-05-14 09:17:00,48.7,34.6,30.42,SE,135,0.0,0.0,58,0.00,,,0.00,WUHU21623XXSP,2013-05-14 13:17:00,
2013-05-14 09:22:00,48.7,35.1,30.42,WSW,247,0.0,0.0,59,0.00,,,0.00,WUHU21623XXSP,2013-05-14 13:22:00,
2013-05-14 09:27:00,48.9,34.8,30.42,ESE,112,0.0,0.0,58,0.00,,,0.00,WUHU21623XXSP,2013-05-14 13:27:00,
2013-05-14 09:32:00,48.7,35.1,30.42,ENE,67,0.0,0.0,59,0.00,,,0.00,WUHU21623XXSP,2013-05-14 13:32:00,
2013-05-14 09:37:00,48.7,35.1,30.42,NNW,337,0.0,0.0,59,0.00,,,0.00,WUHU21623XXSP,2013-05-14 13:37:00,
2013-05-14 09:42:00,48.9,35.2,30.41,NNE,22,0.0,0.0,59,0.00,,,0.00,WUHU21623XXSP,2013-05-14 13:42:00,
2013-05-14 09:47:00,48.9,35.2,30.40,West,270,0.0,0.0,59,0.00,,,0.00,WUHU21623XXSP,2013-05-14 13:47:00,
2013-05-14 09:52:00,48.9,35.2,30.40,SSW,202,0.0,0.0,59,0.00,,,0.00,WUHU21623XXSP,2013-05-14 13:52:00,
2013-05-14 09:57:00,48.9,35.2,30.39,NNE,22,0.0,0.0,59,0.00,,,0.00,WUHU21623XXSP,2013-05-14 13:57:00,
2013-05-14 10:02:00,49.3,35.6,30.39,ENE,67,0.0,0.0,59,0.00,,,0.00,WUHU21623XXSP,2013-05-14 14:02:00,
2013-05-14 10:07:00,49.3,36.0,30.39,NE,45,0.0,0.9,60,0.00,,,0.00,WUHU21623XXSP,2013-05-14 14:07:00,
2013-05-14 10:12:00,49.3,35.6,30.39,NNE,22,0.0,1.1,59,0.00,,,0.00,WUHU21623XXSP,2013-05-14 14:12:00,
2013-05-14 10:17:00,49.6,35.4,30.39,WSW,247,0.0,1.1,58,0.00,,,0.00,WUHU21623XXSP,2013-05-14 14:17:00,
2013-05-14 10:22:00,49.6,35.4,30.38,West,270,0.0,0.0,58,0.00,,,0.00,WUHU21623XXSP,2013-05-14 14:22:00,
2013-05-14 10:27:00,49.8,35.6,30.38,East,90,0.0,0.0,58,0.00,,,0.00,WUHU21623XXSP,2013-05-14 14:27:00,
2013-05-14 10:32:00,50.4,36.1,30.38,NNW,337,0.0,0.0,58,0.00,,,0.00,WUHU21623XXSP,2013-05-14 14:32:00,
2013-05-14 10:37:00,50.7,36.4,30.37,SE,135,0.0,0.0,58,0.00,,,0.00,WUHU21623XXSP,2013-05-14 14:37:00,
2013-05-14 10:42:00,51.1,36.3,30.37,SSW,202,0.0,0.0,57,0.00,,,0.00,WUHU21623XXSP,2013-05-14 14:42:00,
2013-05-14 10:47:00,51.4,36.6,30.36,ENE,67,0.0,0.0,57,0.00,,,0.00,WUHU21623XXSP,2013-05-14 14:47:00,
2013-05-14 10:52:00,51.6,36.8,30.35,SSE,157,0.0,0.0,57,0.00,,,0.00,WUHU21623XXSP,2013-05-14 14:52:00,
2013-05-14 10:57:00,52.3,37.5,30.35,SE,135,0.0,0.0,57,0.00,,,0.00,WUHU21623XXSP,2013-05-14 14:57:00,
2013-05-14 11:02:00,52.5,37.6,30.35,North,0,0.0,0.0,57,0.00,,,0.00,WUHU21623XXSP,2013-05-14 15:02:00,
2013-05-14 11:07:00,52.9,38.0,30.35,NNE,22,0.0,1.6,57,0.00,,,0.00,WUHU21623XXSP,2013-05-14 15:07:00,
2013-05-14 11:12:00,53.4,38.0,30.35,East,90,0.0,1.6,56,0.00,,,0.00,WUHU21623XXSP,2013-05-14 15:12:00,
2013-05-14 11:18:00,53.8,38.4,30.35,East,90,0.0,0.0,56,0.00,,,0.00,WUHU21623XXSP,2013-05-14 15:18:00,
2013-05-14 11:23:00,54.1,38.2,30.35,WSW,247,0.0,0.0,55,0.00,,,0.00,WUHU21623XXSP,2013-05-14 15:23:00,
2013-05-14 11:28:00,54.5,38.1,30.35,NW,315,0.0,2.5,54,0.00,,,0.00,WUHU21623XXSP,2013-05-14 15:28:00,
2013-05-14 11:33:00,55.0,38.1,30.35,North,0,0.0,2.5,53,0.00,,,0.00,WUHU21623XXSP,2013-05-14 15:33:00,
2013-05-14 11:38:00,55.2,38.3,30.35,South,180,0.0,0.0,53,0.00,,,0.00,WUHU21623XXSP,2013-05-14 15:38:00,
2013-05-14 11:43:00,55.8,38.3,30.35,SSW,202,0.0,1.6,52,0.00,,,0.00,WUHU21623XXSP,2013-05-14 15:43:00,
2013-05-14 11:48:00,55.9,39.0,30.35,East,90,0.0,1.6,53,0.00,,,0.00,WUHU21623XXSP,2013-05-14 15:48:00,
2013-05-14 11:53:00,56.3,39.3,30.35,WSW,247,0.0,0.0,53,0.00,,,0.00,WUHU21623XXSP,2013-05-14 15:53:00,
2013-05-14 11:58:00,57.0,39.6,30.35,ENE,67,0.0,0.0,52,0.00,,,0.00,WUHU21623XXSP,2013-05-14 15:58:00,
2013-05-14 12:03:00,57.4,39.5,30.35,SW,225,0.0,0.0,51,0.00,,,0.00,WUHU21623XXSP,2013-05-14 16:03:00,
2013-05-14 12:08:00,57.6,39.6,30.35,NE,45,1.8,1.8,51,0.00,,,0.00,WUHU21623XXSP,2013-05-14 16:08:00,
2013-05-14 12:13:00,57.7,39.8,30.36,NNW,337,1.1,1.8,51,0.00,,,0.00,WUHU21623XXSP,2013-05-14 16:13:00,
2013-05-14 12:18:00,57.7,39.3,30.36,ESE,112,0.0,1.1,50,0.00,,,0.00,WUHU21623XXSP,2013-05-14 16:18:00,
2013-05-14 12:23:00,57.7,39.8,30.36,ENE,67,0.0,0.0,51,0.00,,,0.00,WUHU21623XXSP,2013-05-14 16:23:00,
2013-05-14 12:28:00,58.5,40.4,30.36,SSE,157,0.0,0.0,51,0.00,,,0.00,WUHU21623XXSP,2013-05-14 16:28:00,
2013-05-14 12:33:00,58.8,40.3,30.36,West,270,0.0,0.0,50,0.00,,,0.00,WUHU21623XXSP,2013-05-14 16:33:00,
2013-05-14 12:38:00,59.0,40.9,30.36,NE,45,0.0,0.0,51,0.00,,,0.00,WUHU21623XXSP,2013-05-14 16:38:00,
2013-05-14 12:43:00,59.9,41.7,30.35,NNE,22,0.0,0.0,51,0.00,,,0.00,WUHU21623XXSP,2013-05-14 16:43:00,
2013-05-14 12:48:00,60.4,41.8,30.35,NE,45,0.0,0.0,50,0.00,,,0.00,WUHU21623XXSP,2013-05-14 16:48:00,
2013-05-14 12:53:00,60.6,41.3,30.35,WNW,292,0.0,0.0,49,0.00,,,0.00,WUHU21623XXSP,2013-05-14 16:53:00,
2013-05-14 12:58:00,61.0,41.7,30.35,WSW,247,0.0,0.0,49,0.00,,,0.00,WUHU21623XXSP,2013-05-14 16:58:00,
2013-05-14 13:03:00,61.3,42.0,30.35,NW,315,0.0,0.0,49,0.00,,,0.00,WUHU21623XXSP,2013-05-14 17:03:00,
2013-05-14 13:08:00,61.7,42.3,30.35,SE,135,0.0,0.0,49,0.00,,,0.00,WUHU21623XXSP,2013-05-14 17:08:00,
2013-05-14 13:13:00,61.7,42.3,30.35,West,270,1.8,1.8,49,0.00,,,0.00,WUHU21623XXSP,2013-05-14 17:13:00,
2013-05-14 13:18:00,61.5,41.6,30.35,North,0,0.0,1.8,48,0.00,,,0.00,WUHU21623XXSP,2013-05-14 17:18:00,
2013-05-14 13:23:00,61.3,42.0,30.34,NNE,22,0.0,2.9,49,0.00,,,0.00,WUHU21623XXSP,2013-05-14 17:23:00,
2013-05-14 13:28:00,61.5,42.2,30.33,SW,225,0.0,2.9,49,0.00,,,0.00,WUHU21623XXSP,2013-05-14 17:28:00,
2013-05-14 13:33:00,61.7,42.3,30.33,WNW,292,0.0,0.0,49,0.00,,,0.00,WUHU21623XXSP,2013-05-14 17:33:00,
2013-05-14 13:38:00,62.1,42.6,30.33,NW,315,0.0,0.0,49,0.00,,,0.00,WUHU21623XXSP,2013-05-14 17:38:00,
2013-05-14 13:43:00,62.4,43.0,30.34,North,0,0.0,0.0,49,0.00,,,0.00,WUHU21623XXSP,2013-05-14 17:43:00,
2013-05-14 13:48:00,62.6,43.1,30.34,North,0,0.0,0.0,49,0.00,,,0.00,WUHU21623XXSP,2013-05-14 17:48:00,
2013-05-14 13:53:00,62.8,43.3,30.33,South,180,0.0,0.0,49,0.00,,,0.00,WUHU21623XXSP,2013-05-14 17:53:00,
2013-05-14 13:58:00,63.0,43.4,30.33,WNW,292,0.0,0.0,49,0.00,,,0.00,WUHU21623XXSP,2013-05-14 17:58:00,
2013-05-14 14:03:00,63.1,44.2,30.33,NNW,337,0.0,0.0,50,0.00,,,0.00,WUHU21623XXSP,2013-05-14 18:03:00,
2013-05-14 14:08:00,63.9,44.3,30.32,SSW,202,0.0,0.0,49,0.00,,,0.00,WUHU21623XXSP,2013-05-14 18:08:00,
2013-05-14 14:13:00,64.6,44.3,30.32,WNW,292,0.0,0.0,48,0.00,,,0.00,WUHU21623XXSP,2013-05-14 18:13:00,
2013-05-14 14:18:00,65.1,45.4,30.32,WSW,247,0.0,0.0,49,0.00,,,0.00,WUHU21623XXSP,2013-05-14 18:18:00,
2013-05-14 14:23:00,65.8,45.6,30.31,East,90,0.0,0.0,48,0.00,,,0.00,WUHU21623XXSP,2013-05-14 18:23:00,
2013-05-14 14:28:00,66.0,45.2,30.32,WSW,247,0.0,0.0,47,0.00,,,0.00,WUHU21623XXSP,2013-05-14 18:28:00,
2013-05-14 14:33:00,66.0,45.8,30.31,South,180,0.0,0.0,48,0.00,,,0.00,WUHU21623XXSP,2013-05-14 18:33:00,
2013-05-14 14:39:00,66.6,46.9,30.31,East,90,0.0,0.0,49,0.00,,,0.00,WUHU21623XXSP,2013-05-14 18:39:00,
2013-05-14 14:44:00,66.7,46.4,30.31,ENE,67,0.0,0.0,48,0.00,,,0.00,WUHU21623XXSP,2013-05-14 18:44:00,
2013-05-14 14:49:00,67.3,46.9,30.31,ENE,67,0.0,0.0,48,0.00,,,0.00,WUHU21623XXSP,2013-05-14 18:49:00,
2013-05-14 14:54:00,67.6,46.6,30.31,ENE,67,0.0,0.0,47,0.00,,,0.00,WUHU21623XXSP,2013-05-14 18:54:00,
2013-05-14 14:59:00,67.8,46.8,30.31,NW,315,0.0,1.6,47,0.00,,,0.00,WUHU21623XXSP,2013-05-14 18:59:00,
2013-05-14 15:04:00,67.8,46.8,30.30,North,0,0.0,1.6,47,0.00,,,0.00,WUHU21623XXSP,2013-05-14 19:04:00,
2013-05-14 15:09:00,67.6,46.0,30.31,NNE,22,0.0,0.0,46,0.00,,,0.00,WUHU21623XXSP,2013-05-14 19:09:00,
2013-05-14 15:14:00,67.3,45.7,30.31,WNW,292,0.0,0.0,46,0.00,,,0.00,WUHU21623XXSP,2013-05-14 19:14:00,
2013-05-14 15:19:00,67.1,46.1,30.32,NNW,337,0.0,0.0,47,0.00,,,0.00,WUHU21623XXSP,2013-05-14 19:19:00,
2013-05-14 15:24:00,67.6,46.6,30.31,NNW,337,0.0,0.0,47,0.00,,,0.00,WUHU21623XXSP,2013-05-14 19:24:00,
2013-05-14 15:29:00,67.6,46.6,30.31,NW,315,0.0,0.0,47,0.00,,,0.00,WUHU21623XXSP,2013-05-14 19:29:00,
2013-05-14 15:34:00,67.3,46.3,30.31,NNW,337,0.0,0.0,47,0.00,,,0.00,WUHU21623XXSP,2013-05-14 19:34:00,
2013-05-14 15:39:00,67.1,46.3,30.31,NNW,337,0.0,0.0,47,0.00,,,0.00,WUHU21623XXSP,2013-05-14 19:39:00,
2013-05-14 15:44:00,66.9,46.0,30.31,NNE,22,0.0,0.0,47,0.00,,,0.00,WUHU21623XXSP,2013-05-14 19:44:00,
2013-05-14 15:49:00,66.7,47.0,30.29,NNE,22,1.6,1.6,49,0.00,,,0.00,WUHU21623XXSP,2013-05-14 19:49:00,
2013-05-14 15:54:00,66.7,46.4,30.29,SW,225,0.0,1.6,48,0.00,,,0.00,WUHU21623XXSP,2013-05-14 19:54:00,
2013-05-14 15:59:00,66.4,46.1,30.29,WNW,292,0.0,0.0,48,0.00,,,0.00,WUHU21623XXSP,2013-05-14 19:59:00,
2013-05-14 16:04:00,66.2,47.1,30.28,NNW,337,0.0,0.0,50,0.00,,,0.00,WUHU21623XXSP,2013-05-14 20:04:00,
2013-05-14 16:09:00,66.0,46.3,30.28,SW,225,0.0,0.0,49,0.00,,,0.00,WUHU21623XXSP,2013-05-14 20:09:00,
2013-05-14 16:14:00,66.0,46.3,30.28,SSW,202,0.0,0.0,49,0.00,,,0.00,WUHU21623XXSP,2013-05-14 20:14:00,
2013-05-14 16:19:00,66.4,47.3,30.28,North,0,0.0,0.0,50,0.00,,,0.00,WUHU21623XXSP,2013-05-14 20:19:00,
2013-05-14 16:24:00,66.9,47.2,30.30,North,0,0.0,0.0,49,0.00,,,0.00,WUHU21623XXSP,2013-05-14 20:24:00,
2013-05-14 16:29:00,67.8,47.4,30.30,NNE,22,0.0,0.0,48,0.00,,,0.00,WUHU21623XXSP,2013-05-14 20:29:00,
2013-05-14 16:34:00,69.1,49.1,30.29,SE,135,0.0,0.0,49,0.00,,,0.00,WUHU21623XXSP,2013-05-14 20:34:00,
2013-05-14 16:39:00,69.6,48.4,30.29,SSE,157,0.0,0.0,47,0.00,,,0.00,WUHU21623XXSP,2013-05-14 20:39:00,
2013-05-14 16:44:00,69.6,47.8,30.29,WSW,247,0.0,0.0,46,0.00,,,0.00,WUHU21623XXSP,2013-05-14 20:44:00,
2013-05-14 16:49:00,68.7,46.4,30.29,WSW,247,0.0,1.6,45,0.00,,,0.00,WUHU21623XXSP,2013-05-14 20:49:00,
2013-05-14 16:54:00,68.2,46.5,30.29,WSW,247,0.0,1.6,46,0.00,,,0.00,WUHU21623XXSP,2013-05-14 20:54:00,
2013-05-14 16:59:00,67.8,46.8,30.29,WSW,247,1.6,1.6,47,0.00,,,0.00,WUHU21623XXSP,2013-05-14 20:59:00,
2013-05-14 17:04:00,67.3,46.3,30.29,WSW,247,0.0,1.6,47,0.00,,,0.00,WUHU21623XXSP,2013-05-14 21:04:00,
2013-05-14 17:09:00,66.9,46.6,30.28,West,270,0.0,1.3,48,0.00,,,0.00,WUHU21623XXSP,2013-05-14 21:09:00,
2013-05-14 17:14:00,66.7,47.2,30.28,West,270,0.0,0.0,50,0.00,,,0.00,WUHU21623XXSP,2013-05-14 21:14:00,
2013-05-14 17:19:00,66.0,46.3,30.28,West,270,0.0,0.0,49,0.00,,,0.00,WUHU21623XXSP,2013-05-14 21:19:00,
2013-05-14 17:24:00,65.7,46.6,30.28,West,270,0.0,0.0,50,0.00,,,0.00,WUHU21623XXSP,2013-05-14 21:24:00,
2013-05-14 17:29:00,65.3,46.9,30.29,West,270,1.6,1.6,51,0.00,,,0.00,WUHU21623XXSP,2013-05-14 21:29:00,
2013-05-14 17:34:00,65.1,47.0,30.28,WNW,292,0.0,1.6,52,0.00,,,0.00,WUHU21623XXSP,2013-05-14 21:34:00,
2013-05-14 17:39:00,64.9,46.8,30.28,WSW,247,0.0,2.0,52,0.00,,,0.00,WUHU21623XXSP,2013-05-14 21:39:00,
2013-05-14 17:45:00,64.2,46.1,30.28,WSW,247,0.0,2.0,52,0.00,,,0.00,WUHU21623XXSP,2013-05-14 21:45:00,
2013-05-14 17:50:00,64.0,46.5,30.28,WSW,247,0.0,0.0,53,0.00,,,0.00,WUHU21623XXSP,2013-05-14 21:50:00,
2013-05-14 17:55:00,63.7,46.1,30.28,WSW,247,0.0,1.1,53,0.00,,,0.00,WUHU21623XXSP,2013-05-14 21:55:00,
2013-05-14 18:00:00,63.5,46.5,30.28,WSW,247,0.0,1.1,54,0.00,,,0.00,WUHU21623XXSP,2013-05-14 22:00:00,
2013-05-14 18:05:00,63.7,46.6,30.28,WSW,247,0.0,1.6,54,0.00,,,0.00,WUHU21623XXSP,2013-05-14 22:05:00,
2013-05-14 18:10:00,63.7,46.6,30.28,WSW,247,1.8,1.8,54,0.00,,,0.00,WUHU21623XXSP,2013-05-14 22:10:00,
2013-05-14 18:15:00,63.5,46.9,30.28,ENE,67,0.0,1.8,55,0.00,,,0.00,WUHU21623XXSP,2013-05-14 22:15:00,
2013-05-14 18:20:00,63.7,47.1,30.28,ENE,67,0.0,0.0,55,0.00,,,0.00,WUHU21623XXSP,2013-05-14 22:20:00,
2013-05-14 18:25:00,63.7,47.1,30.28,North,0,0.0,0.0,55,0.00,,,0.00,WUHU21623XXSP,2013-05-14 22:25:00,
2013-05-14 18:30:00,64.2,47.1,30.28,West,270,0.0,0.0,54,0.00,,,0.00,WUHU21623XXSP,2013-05-14 22:30:00,
2013-05-14 18:35:00,64.4,47.3,30.28,WSW,247,0.0,0.0,54,0.00,,,0.00,WUHU21623XXSP,2013-05-14 22:35:00,
2013-05-14 18:40:00,64.9,47.3,30.28,WSW,247,0.0,1.1,53,0.00,,,0.00,WUHU21623XXSP,2013-05-14 22:40:00,
2013-05-14 18:45:00,65.1,47.5,30.28,NNW,337,0.0,3.4,53,0.00,,,0.00,WUHU21623XXSP,2013-05-14 22:45:00,
2013-05-14 18:50:00,65.1,47.0,30.28,SE,135,0.0,3.4,52,0.00,,,0.00,WUHU21623XXSP,2013-05-14 22:50:00,
2013-05-14 18:55:00,64.6,46.5,30.27,SSE,157,0.0,0.0,52,0.00,,,0.00,WUHU21623XXSP,2013-05-14 22:55:00,
2013-05-14 19:00:00,63.9,46.8,30.28,SW,225,0.0,0.0,54,0.00,,,0.00,WUHU21623XXSP,2013-05-14 23:00:00,
2013-05-14 19:05:00,63.5,46.5,30.27,SW,225,0.0,0.0,54,0.00,,,0.00,WUHU21623XXSP,2013-05-14 23:05:00,
2013-05-14 19:10:00,63.0,46.0,30.27,North,0,0.0,0.0,54,0.00,,,0.00,WUHU21623XXSP,2013-05-14 23:10:00,
2013-05-14 19:15:00,62.4,45.5,30.26,WSW,247,0.0,0.0,54,0.00,,,0.00,WUHU21623XXSP,2013-05-14 23:15:00,
2013-05-14 19:20:00,62.2,45.3,30.27,SW,225,0.0,0.0,54,0.00,,,0.00,WUHU21623XXSP,2013-05-14 23:20:00,
2013-05-14 19:25:00,61.7,45.3,30.26,SW,225,0.0,0.0,55,0.00,,,0.00,WUHU21623XXSP,2013-05-14 23:25:00,
2013-05-14 19:30:00,61.5,45.2,30.26,WSW,247,0.0,0.0,55,0.00,,,0.00,WUHU21623XXSP,2013-05-14 23:30:00,
2013-05-14 19:35:00,61.2,45.0,30.25,SSW,202,0.0,0.0,55,0.00,,,0.00,WUHU21623XXSP,2013-05-14 23:35:00,
2013-05-14 19:40:00,61.0,45.2,30.26,SSW,202,0.0,0.0,56,0.00,,,0.00,WUHU21623XXSP,2013-05-14 23:40:00,
2013-05-14 19:45:00,60.6,45.3,30.26,SSW,202,0.0,0.0,57,0.00,,,0.00,WUHU21623XXSP,2013-05-14 23:45:00,
2013-05-14 19:50:00,60.4,45.1,30.25,SSW,202,0.0,0.0,57,0.00,,,0.00,WUHU21623XXSP,2013-05-14 23:50:00,
2013-05-14 19:55:00,60.4,45.1,30.26,SE,135,0.0,0.0,57,0.00,,,0.00,WUHU21623XXSP,2013-05-14 23:55:00,
2013-05-14 20:00:00,60.3,45.4,30.25,SE,135,0.0,0.0,58,0.00,,,0.00,WUHU21623XXSP,2013-05-15 00:00:00,
2013-05-14 20:05:00,60.1,45.2,30.25,North,0,0.0,0.0,58,0.00,,,0.00,WUHU21623XXSP,2013-05-15 00:05:00,
2013-05-14 20:10:00,59.7,44.9,30.25,NE,45,0.0,0.0,58,0.00,,,0.00,WUHU21623XXSP,2013-05-15 00:10:00,
2013-05-14 20:15:00,59.5,44.7,30.25,NE,45,0.0,0.0,58,0.00,,,0.00,WUHU21623XXSP,2013-05-15 00:15:00,
2013-05-14 20:20:00,59.2,44.8,30.25,North,0,0.0,0.0,59,0.00,,,0.00,WUHU21623XXSP,2013-05-15 00:20:00,
2013-05-14 20:25:00,58.8,44.5,30.24,North,0,0.0,0.0,59,0.00,,,0.00,WUHU21623XXSP,2013-05-15 00:25:00,
2013-05-14 20:30:00,58.5,44.7,30.24,North,0,0.0,0.0,60,0.00,,,0.00,WUHU21623XXSP,2013-05-15 00:30:00,
2013-05-14 20:35:00,58.1,44.3,30.24,North,0,0.0,0.0,60,0.00,,,0.00,WUHU21623XXSP,2013-05-15 00:35:00,
2013-05-14 20:40:00,57.7,44.0,30.24,North,0,0.0,0.0,60,0.00,,,0.00,WUHU21623XXSP,2013-05-15 00:40:00,
2013-05-14 20:45:00,57.7,44.4,30.24,North,0,0.0,0.0,61,0.00,,,0.00,WUHU21623XXSP,2013-05-15 00:45:00,
2013-05-14 20:50:00,57.4,44.1,30.23,North,0,0.0,0.0,61,0.00,,,0.00,WUHU21623XXSP,2013-05-15 00:50:00,
2013-05-14 20:55:00,57.0,44.1,30.21,North,0,0.0,0.0,62,0.00,,,0.00,WUHU21623XXSP,2013-05-15 00:55:00,
2013-05-14 21:00:00,56.8,44.0,30.22,North,0,0.0,0.0,62,0.00,,,0.00,WUHU21623XXSP,2013-05-15 01:00:00,
2013-05-14 21:06:00,56.7,43.8,30.21,North,0,0.0,0.0,62,0.00,,,0.00,WUHU21623XXSP,2013-05-15 01:06:00,
2013-05-14 21:11:00,56.1,43.6,30.21,North,0,0.0,0.0,63,0.00,,,0.00,WUHU21623XXSP,2013-05-15 01:11:00,
2013-05-14 21:16:00,55.9,43.5,30.20,North,0,0.0,0.0,63,0.00,,,0.00,WUHU21623XXSP,2013-05-15 01:16:00,
2013-05-14 21:21:00,55.8,43.3,30.20,NW,315,0.0,0.0,63,0.00,,,0.00,WUHU21623XXSP,2013-05-15 01:21:00,
2013-05-14 21:26:00,55.6,43.5,30.19,NW,315,0.0,0.0,64,0.00,,,0.00,WUHU21623XXSP,2013-05-15 01:26:00,
2013-05-14 21:31:00,55.6,43.1,30.20,NNW,337,0.0,0.0,63,0.00,,,0.00,WUHU21623XXSP,2013-05-15 01:31:00,
2013-05-14 21:36:00,55.6,43.1,30.22,North,0,0.0,0.0,63,0.00,,,0.00,WUHU21623XXSP,2013-05-15 01:36:00,
2013-05-14 21:41:00,55.6,43.5,30.22,NW,315,0.0,0.0,64,0.00,,,0.00,WUHU21623XXSP,2013-05-15 01:41:00,
2013-05-14 21:46:00,55.6,43.5,30.22,NW,315,0.0,0.0,64,0.00,,,0.00,WUHU21623XXSP,2013-05-15 01:46:00,
2013-05-14 21:51:00,55.4,43.4,30.22,NNW,337,0.0,0.0,64,0.00,,,0.00,WUHU21623XXSP,2013-05-15 01:51:00,
2013-05-14 21:56:00,55.6,43.4,30.24,NNW,337,0.0,0.0,64,0.00,,,0.00,WUHU21623XXSP,2013-05-15 01:56:00,
2013-05-14 22:01:00,55.6,43.5,30.24,NNW,337,0.0,0.0,64,0.00,,,0.00,WUHU21623XXSP,2013-05-15 02:01:00,
2013-05-14 22:06:00,55.4,43.4,30.24,NNW,337,0.0,0.0,64,0.00,,,0.00,WUHU21623XXSP,2013-05-15 02:06:00,
2013-05-14 22:11:00,55.2,43.2,30.25,NNW,337,0.0,0.0,64,0.00,,,0.00,WUHU21623XXSP,2013-05-15 02:11:00,
2013-05-14 22:16:00,55.2,43.2,30.25,NNW,337,0.0,0.0,64,0.00,,,0.00,WUHU21623XXSP,2013-05-15 02:16:00,
2013-05-14 22:21:00,55.0,43.4,30.22,NNW,337,0.0,0.0,65,0.00,,,0.00,WUHU21623XXSP,2013-05-15 02:21:00,
2013-05-14 22:26:00,54.9,43.3,30.23,NNW,337,0.0,0.0,65,0.00,,,0.00,WUHU21623XXSP,2013-05-15 02:26:00,
2013-05-14 22:31:00,54.7,43.1,30.23,NNW,337,0.0,0.0,65,0.00,,,0.00,WUHU21623XXSP,2013-05-15 02:31:00,
2013-05-14 22:36:00,54.7,43.1,30.25,NNW,337,0.0,0.0,65,0.00,,,0.00,WUHU21623XXSP,2013-05-15 02:36:00,
2013-05-14 22:41:00,54.5,42.9,30.25,NNW,337,0.0,0.0,65,0.00,,,0.00,WUHU21623XXSP,2013-05-15 02:41:00,
2013-05-14 22:46:00,54.5,42.9,30.23,NNW,337,0.0,0.0,65,0.00,,,0.00,WUHU21623XXSP,2013-05-15 02:46:00,
2013-05-14 22:51:00,54.5,43.7,30.22,NNW,337,0.0,0.0,67,0.00,,,0.00,WUHU21623XXSP,2013-05-15 02:51:00,
2013-05-14 22:56:00,54.3,43.6,30.23,NNW,337,0.0,0.0,68,0.00,,,0.00,WUHU21623XXSP,2013-05-15 02:56:00,
2013-05-14 23:01:00,54.3,44.4,30.23,NNW,337,0.0,0.0,69,0.00,,,0.00,WUHU21623XXSP,2013-05-15 03:01:00,
2013-05-14 23:06:00,53.8,44.6,30.25,NNW,337,0.0,0.0,71,0.00,,,0.00,WUHU21623XXSP,2013-05-15 03:06:00,
2013-05-14 23:11:00,53.4,45.0,30.25,WSW,247,0.0,1.3,73,0.00,,,0.00,WUHU21623XXSP,2013-05-15 03:11:00,
2013-05-14 23:16:00,53.2,44.8,30.25,NW,315,0.0,1.3,73,0.00,,,0.00,WUHU21623XXSP,2013-05-15 03:16:00,
2013-05-14 23:21:00,53.2,45.2,30.23,NW,315,0.0,0.0,74,0.00,,,0.00,WUHU21623XXSP,2013-05-15 03:21:00,
2013-05-14 23:26:00,53.2,45.5,30.24,NW,315,0.0,0.0,75,0.00,,,0.00,WUHU21623XXSP,2013-05-15 03:26:00,
2013-05-14 23:31:00,53.1,45.3,30.22,North,0,0.0,0.0,75,0.00,,,0.00,WUHU21623XXSP,2013-05-15 03:31:00,
2013-05-14 23:36:00,52.9,45.2,30.21,East,90,0.0,2.2,75,0.00,,,0.00,WUHU21623XXSP,2013-05-15 03:36:00,
2013-05-14 23:41:00,52.9,45.5,30.22,South,180,0.0,2.2,76,0.00,,,0.00,WUHU21623XXSP,2013-05-15 03:41:00,
2013-05-14 23:46:00,52.9,45.9,30.22,SW,225,0.0,0.0,77,0.00,,,0.00,WUHU21623XXSP,2013-05-15 03:46:00,
2013-05-14 23:51:00,52.7,45.7,30.21,WNW,292,0.0,0.0,77,0.00,,,0.00,WUHU21623XXSP,2013-05-15 03:51:00,
2013-05-14 23:56:00,52.7,45.7,30.21,ESE,112,0.0,0.0,77,0.00,,,0.00,WUHU21623XXSP,2013-05-15 03:56:00,